Location: ???? ?????????
(31.1304°N, 31.7111°E)
Time: 16:48:32
(UTC+00:00)

X-37B - Visible Passes

Search period start: 22 January 2021 00:00
Search period end: 01 February 2021 00:00
Orbit: 385 x 390 km, 45.0° (Epoch: 20 January)

Date Brightness Start Highest point End Pass type
(mag) Time Alt. Az. Time Alt. Az. Time Alt. Az.
29 Jan 2.8 16:54:56 10° NNW 16:56:10 17° N 16:56:10 17° N visible
30 Jan 2.7 15:57:07 10° NNW 15:58:56 14° NNE 16:00:45 10° ENE visible
30 Jan 3.6 17:32:44 10° NW 17:33:11 13° NW 17:33:11 13° NW visible
31 Jan 1.1 16:34:30 10° NW 16:37:31 40° NNE 16:38:03 36° ENE visible
